Time,TemperatureF,DewpointF,PressureIn,WindDirection,WindDirectionDegrees,WindSpeedMPH,WindSpeedGustMPH,Humidity,HourlyPrecipIn,Conditions,Clouds,dailyrainin,SolarRadiationWatts/m^2,SoftwareType,DateUTC
2013-03-28 00:00:00,29.0,19.0,-100.00,WSW,247,1.0,-999.0,64,-99.99,,,-99.99,0.000000,,2013-03-28 04:00:00,
2013-03-28 00:42:00,29.0,19.0,-100.00,WSW,247,1.0,-999.0,64,-99.99,,,-99.99,0.000000,,2013-03-28 04:42:00,
2013-03-28 00:53:00,29.0,19.0,-100.00,WSW,247,1.0,-999.0,64,-99.99,,,-99.99,0.000000,,2013-03-28 04:53:00,
2013-03-28 01:00:00,28.0,20.0,-100.00,WSW,247,1.0,-999.0,71,-99.99,,,-99.99,0.000000,,2013-03-28 05:00:00,
2013-03-28 01:43:00,28.0,20.0,-100.00,WSW,247,1.0,-999.0,71,-99.99,,,-99.99,0.000000,,2013-03-28 05:43:00,
2013-03-28 01:52:00,28.0,20.0,-100.00,WSW,247,1.0,-999.0,71,-99.99,,,-99.99,0.000000,,2013-03-28 05:52:00,
2013-03-28 02:00:00,28.0,19.0,-100.00,WSW,247,1.0,-999.0,69,-99.99,,,-99.99,0.000000,,2013-03-28 06:00:00,
2013-03-28 02:42:00,28.0,19.0,-100.00,WSW,247,1.0,-999.0,69,-99.99,,,-99.99,0.000000,,2013-03-28 06:42:00,
2013-03-28 02:52:00,28.0,19.0,-100.00,WSW,247,1.0,-999.0,69,-99.99,,,-99.99,0.000000,,2013-03-28 06:52:00,
2013-03-28 03:00:00,28.0,19.0,-100.00,WNW,292,1.0,-999.0,69,-99.99,,,-99.99,0.000000,,2013-03-28 07:00:00,
2013-03-28 03:42:00,28.0,19.0,-100.00,WNW,292,1.0,-999.0,69,-99.99,,,-99.99,0.000000,,2013-03-28 07:42:00,
2013-03-28 03:52:00,28.0,19.0,-100.00,WNW,292,1.0,-999.0,69,-99.99,,,-99.99,0.000000,,2013-03-28 07:52:00,
2013-03-28 04:00:00,28.0,20.0,-100.00,West,270,1.0,-999.0,72,-99.99,,,-99.99,0.000000,,2013-03-28 08:00:00,
2013-03-28 04:42:00,28.0,20.0,-100.00,West,270,1.0,-999.0,72,-99.99,,,-99.99,0.000000,,2013-03-28 08:42:00,
2013-03-28 04:52:00,28.0,20.0,-100.00,West,270,1.0,-999.0,72,-99.99,,,-99.99,0.000000,,2013-03-28 08:52:00,
2013-03-28 06:00:00,27.0,21.0,-100.00,WSW,247,1.0,-999.0,77,-99.99,,,-99.99,0.000000,,2013-03-28 10:00:00,
2013-03-28 06:43:00,27.0,21.0,-100.00,WSW,247,1.0,-999.0,77,-99.99,,,-99.99,0.000000,,2013-03-28 10:43:00,
2013-03-28 06:53:00,27.0,21.0,-100.00,WSW,247,1.0,-999.0,77,-99.99,,,-99.99,0.000000,,2013-03-28 10:53:00,
2013-03-28 07:00:00,27.0,21.0,-100.00,WSW,247,1.0,-999.0,79,-99.99,,,-99.99,0.000000,,2013-03-28 11:00:00,
2013-03-28 07:43:00,27.0,21.0,-100.00,WSW,247,1.0,-999.0,79,-99.99,,,-99.99,0.000000,,2013-03-28 11:43:00,
2013-03-28 07:52:00,27.0,21.0,-100.00,WSW,247,1.0,-999.0,79,-99.99,,,-99.99,0.000000,,2013-03-28 11:52:00,
2013-03-28 08:00:00,27.0,22.0,-100.00,West,270,2.0,-999.0,79,-99.99,,,-99.99,5.800000,,2013-03-28 12:00:00,
2013-03-28 08:42:00,27.0,22.0,-100.00,West,270,2.0,-999.0,79,-99.99,,,-99.99,5.800000,,2013-03-28 12:42:00,
2013-03-28 08:52:00,27.0,22.0,-100.00,West,270,2.0,-999.0,79,-99.99,,,-99.99,5.800000,,2013-03-28 12:52:00,
2013-03-28 09:00:00,29.0,23.0,-100.00,WSW,247,2.0,-999.0,78,-99.99,,,-99.99,104.400002,,2013-03-28 13:00:00,
2013-03-28 09:42:00,29.0,23.0,-100.00,WSW,247,2.0,-999.0,78,-99.99,,,-99.99,104.400002,,2013-03-28 13:42:00,
2013-03-28 09:52:00,29.0,23.0,-100.00,WSW,247,2.0,-999.0,78,-99.99,,,-99.99,104.400002,,2013-03-28 13:52:00,
2013-03-28 10:00:00,34.0,26.0,-100.00,WNW,292,4.0,-999.0,74,-99.99,,,-99.99,270.279999,,2013-03-28 14:00:00,
2013-03-28 10:42:00,34.0,26.0,-100.00,WNW,292,4.0,-999.0,74,-99.99,,,-99.99,270.279999,,2013-03-28 14:42:00,
2013-03-28 10:52:00,34.0,26.0,-100.00,WNW,292,4.0,-999.0,74,-99.99,,,-99.99,270.279999,,2013-03-28 14:52:00,
2013-03-28 11:00:00,39.0,25.0,-100.00,NW,315,6.0,-999.0,58,-99.99,,,-99.99,436.160004,,2013-03-28 15:00:00,
2013-03-28 11:43:00,39.0,25.0,-100.00,NW,315,6.0,-999.0,58,-99.99,,,-99.99,436.160004,,2013-03-28 15:43:00,
2013-03-28 11:53:00,39.0,25.0,-100.00,NW,315,6.0,-999.0,58,-99.99,,,-99.99,436.160004,,2013-03-28 15:53:00,
2013-03-28 12:00:00,42.0,23.0,-100.00,WNW,292,6.0,-999.0,46,-99.99,,,-99.99,577.679993,,2013-03-28 16:00:00,
2013-03-28 12:42:00,42.0,23.0,-100.00,WNW,292,6.0,-999.0,46,-99.99,,,-99.99,577.679993,,2013-03-28 16:42:00,
2013-03-28 12:52:00,42.0,23.0,-100.00,WNW,292,6.0,-999.0,46,-99.99,,,-99.99,577.679993,,2013-03-28 16:52:00,
2013-03-28 13:00:00,45.0,20.0,-100.00,WNW,292,6.0,-999.0,37,-99.99,,,-99.99,682.080017,,2013-03-28 17:00:00,
2013-03-28 13:42:00,45.0,20.0,-100.00,WNW,292,6.0,-999.0,37,-99.99,,,-99.99,682.080017,,2013-03-28 17:42:00,
2013-03-28 13:52:00,45.0,20.0,-100.00,WNW,292,6.0,-999.0,37,-99.99,,,-99.99,682.080017,,2013-03-28 17:52:00,
2013-03-28 14:00:00,47.0,19.0,-100.00,NW,315,6.0,-999.0,32,-99.99,,,-99.99,745.880005,,2013-03-28 18:00:00,
2013-03-28 14:42:00,47.0,19.0,-100.00,NW,315,6.0,-999.0,32,-99.99,,,-99.99,745.880005,,2013-03-28 18:42:00,
2013-03-28 14:52:00,47.0,19.0,-100.00,NW,315,6.0,-999.0,32,-99.99,,,-99.99,745.880005,,2013-03-28 18:52:00,
2013-03-28 15:00:00,47.0,19.0,-100.00,WNW,292,8.0,-999.0,32,-99.99,,,-99.99,687.880005,,2013-03-28 19:00:00,
2013-03-28 15:43:00,47.0,19.0,-100.00,WNW,292,8.0,-999.0,32,-99.99,,,-99.99,687.880005,,2013-03-28 19:43:00,
2013-03-28 15:52:00,47.0,19.0,-100.00,WNW,292,8.0,-999.0,32,-99.99,,,-99.99,687.880005,,2013-03-28 19:52:00,
2013-03-28 16:00:00,47.0,19.0,-100.00,WNW,292,7.0,-999.0,32,-99.99,,,-99.99,667.000000,,2013-03-28 20:00:00,
2013-03-28 16:42:00,47.0,19.0,-100.00,WNW,292,7.0,-999.0,32,-99.99,,,-99.99,667.000000,,2013-03-28 20:42:00,
2013-03-28 16:53:00,47.0,19.0,-100.00,WNW,292,7.0,-999.0,32,-99.99,,,-99.99,667.000000,,2013-03-28 20:53:00,
2013-03-28 17:00:00,46.0,18.0,-100.00,NW,315,7.0,-999.0,32,-99.99,,,-99.99,552.159973,,2013-03-28 21:00:00,
2013-03-28 17:43:00,46.0,18.0,-100.00,NW,315,7.0,-999.0,32,-99.99,,,-99.99,552.159973,,2013-03-28 21:43:00,
2013-03-28 17:53:00,46.0,18.0,-100.00,NW,315,7.0,-999.0,32,-99.99,,,-99.99,552.159973,,2013-03-28 21:53:00,
2013-03-28 18:00:00,46.0,17.0,-100.00,WNW,292,7.0,-999.0,31,-99.99,,,-99.99,423.399994,,2013-03-28 22:00:00,
2013-03-28 18:42:00,46.0,17.0,-100.00,WNW,292,7.0,-999.0,31,-99.99,,,-99.99,423.399994,,2013-03-28 22:42:00,
2013-03-28 18:53:00,46.0,17.0,-100.00,WNW,292,7.0,-999.0,31,-99.99,,,-99.99,423.399994,,2013-03-28 22:53:00,
2013-03-28 19:00:00,45.0,16.0,-100.00,NW,315,6.0,-999.0,31,-99.99,,,-99.99,248.240005,,2013-03-28 23:00:00,
2013-03-28 19:42:00,45.0,16.0,-100.00,NW,315,6.0,-999.0,31,-99.99,,,-99.99,248.240005,,2013-03-28 23:42:00,
2013-03-28 19:53:00,45.0,16.0,-100.00,NW,315,6.0,-999.0,31,-99.99,,,-99.99,248.240005,,2013-03-28 23:53:00,
2013-03-28 21:00:00,38.0,17.0,-100.00,NNW,337,2.0,-999.0,41,-99.99,,,-99.99,1.160000,,2013-03-29 01:00:00,
2013-03-28 21:42:00,38.0,17.0,-100.00,NNW,337,2.0,-999.0,41,-99.99,,,-99.99,1.160000,,2013-03-29 01:42:00,
2013-03-28 21:53:00,38.0,17.0,-100.00,NNW,337,2.0,-999.0,41,-99.99,,,-99.99,1.160000,,2013-03-29 01:53:00,
2013-03-28 22:00:00,36.0,17.0,-100.00,North,0,1.0,-999.0,44,-99.99,,,-99.99,0.000000,,2013-03-29 02:00:00,
2013-03-28 22:42:00,36.0,17.0,-100.00,North,0,1.0,-999.0,44,-99.99,,,-99.99,0.000000,,2013-03-29 02:42:00,
2013-03-28 22:53:00,36.0,17.0,-100.00,North,0,1.0,-999.0,44,-99.99,,,-99.99,0.000000,,2013-03-29 02:53:00,
2013-03-28 23:00:00,35.0,17.0,-100.00,NNW,337,1.0,-999.0,47,-99.99,,,-99.99,0.000000,,2013-03-29 03:00:00,
2013-03-28 23:43:00,35.0,17.0,-100.00,NNW,337,1.0,-999.0,47,-99.99,,,-99.99,0.000000,,2013-03-29 03:43:00,
2013-03-28 23:53:00,35.0,17.0,-100.00,NNW,337,1.0,-999.0,47,-99.99,,,-99.99,0.000000,,2013-03-29 03:53:00,